Time,TemperatureF,DewpointF,PressureIn,WindDirection,WindDirectionDegrees,WindSpeedMPH,WindSpeedGustMPH,Humidity,HourlyPrecipIn,Conditions,Clouds,dailyrainin,SolarRadiationWatts/m^2,SoftwareType,DateUTC
2013-03-05 00:03:00,16.6,13.7,30.34,ESE,102,0.0,5.0,88,0.00,,,0.00,0,Wunderground v.1.15,2013-03-05 07:03:00,
2013-03-05 00:09:00,16.4,13.5,30.34,ESE,102,0.0,5.0,88,0.00,,,0.00,0,Wunderground v.1.15,2013-03-05 07:09:00,
2013-03-05 00:15:00,16.3,13.4,30.34,ESE,102,0.0,5.0,88,0.00,,,0.00,0,Wunderground v.1.15,2013-03-05 07:15:00,
2013-03-05 00:21:00,16.1,13.2,30.34,ESE,102,0.0,5.0,88,0.00,,,0.00,0,Wunderground v.1.15,2013-03-05 07:21:00,
2013-03-05 00:27:00,16.0,13.1,30.34,ESE,102,0.0,5.0,88,0.00,,,0.00,0,Wunderground v.1.15,2013-03-05 07:27:00,
2013-03-05 00:33:00,15.8,12.9,30.34,ESE,102,0.0,5.0,88,0.00,,,0.00,0,Wunderground v.1.15,2013-03-05 07:33:00,
2013-03-05 00:39:00,15.6,12.7,30.34,ESE,102,0.0,5.0,88,0.00,,,0.00,0,Wunderground v.1.15,2013-03-05 07:39:00,
2013-03-05 00:45:00,15.5,12.6,30.34,ESE,102,0.0,5.0,88,0.00,,,0.00,0,Wunderground v.1.15,2013-03-05 07:45:00,
2013-03-05 00:50:00,15.3,12.4,30.34,ESE,102,0.0,5.0,88,0.00,,,0.00,0,Wunderground v.1.15,2013-03-05 07:50:00,
2013-03-05 00:56:00,15.2,12.5,30.34,ESE,102,0.0,5.0,89,0.00,,,0.00,0,Wunderground v.1.15,2013-03-05 07:56:00,
2013-03-05 01:02:00,15.2,12.5,30.34,ESE,102,1.0,5.0,89,0.00,,,0.00,0,Wunderground v.1.15,2013-03-05 08:02:00,
2013-03-05 01:08:00,15.1,12.4,30.34,ESE,102,0.0,5.0,89,0.00,,,0.00,0,Wunderground v.1.15,2013-03-05 08:08:00,
2013-03-05 01:14:00,15.0,12.3,30.35,ESE,102,0.0,5.0,89,0.00,,,0.00,0,Wunderground v.1.15,2013-03-05 08:14:00,
2013-03-05 01:20:00,15.0,12.6,30.34,ESE,102,0.0,5.0,90,0.00,,,0.00,0,Wunderground v.1.15,2013-03-05 08:20:00,
2013-03-05 01:26:00,15.1,12.7,30.35,ESE,102,0.0,5.0,90,0.00,,,0.00,0,Wunderground v.1.15,2013-03-05 08:26:00,
2013-03-05 01:32:00,15.2,12.8,30.34,ESE,102,0.0,5.0,90,0.00,,,0.00,0,Wunderground v.1.15,2013-03-05 08:32:00,
2013-03-05 01:38:00,15.2,12.8,30.35,ESE,102,0.0,5.0,90,0.00,,,0.00,0,Wunderground v.1.15,2013-03-05 08:38:00,
2013-03-05 01:44:00,15.2,12.8,30.35,ESE,102,0.0,5.0,90,0.00,,,0.00,0,Wunderground v.1.15,2013-03-05 08:44:00,
2013-03-05 01:50:00,15.1,12.7,30.35,ESE,102,0.0,5.0,90,0.00,,,0.00,0,Wunderground v.1.15,2013-03-05 08:50:00,
2013-03-05 01:56:00,15.0,12.6,30.35,ESE,102,0.0,5.0,90,0.00,,,0.00,0,Wunderground v.1.15,2013-03-05 08:56:00,
2013-03-05 02:02:00,14.9,12.5,30.35,ESE,102,0.0,5.0,90,0.00,,,0.00,0,Wunderground v.1.15,2013-03-05 09:02:00,
2013-03-05 02:08:00,14.8,12.4,30.35,ESE,102,0.0,5.0,90,0.00,,,0.00,0,Wunderground v.1.15,2013-03-05 09:08:00,
2013-03-05 02:13:00,14.8,12.4,30.35,ESE,102,0.0,5.0,90,0.00,,,0.00,0,Wunderground v.1.15,2013-03-05 09:13:00,
2013-03-05 02:19:00,14.6,12.2,30.35,ESE,102,0.0,5.0,90,0.00,,,0.00,0,Wunderground v.1.15,2013-03-05 09:19:00,
2013-03-05 02:25:00,14.4,11.8,30.35,ESE,102,0.0,5.0,89,0.00,,,0.00,0,Wunderground v.1.15,2013-03-05 09:25:00,
2013-03-05 02:31:00,14.2,11.6,30.36,ESE,102,0.0,5.0,89,0.00,,,0.00,0,Wunderground v.1.15,2013-03-05 09:31:00,
2013-03-05 02:37:00,14.1,11.5,30.36,ESE,102,0.0,5.0,89,0.00,,,0.00,0,Wunderground v.1.15,2013-03-05 09:37:00,
2013-03-05 02:43:00,13.8,11.2,30.36,ESE,102,0.0,5.0,89,0.00,,,0.00,0,Wunderground v.1.15,2013-03-05 09:43:00,
2013-03-05 02:49:00,13.7,11.1,30.35,ESE,102,0.0,5.0,89,0.00,,,0.00,0,Wunderground v.1.15,2013-03-05 09:49:00,
2013-03-05 02:55:00,13.5,10.9,30.35,ESE,102,0.0,5.0,89,0.00,,,0.00,0,Wunderground v.1.15,2013-03-05 09:55:00,
2013-03-05 03:01:00,13.4,10.8,30.36,ESE,102,0.0,5.0,89,0.00,,,0.00,0,Wunderground v.1.15,2013-03-05 10:01:00,
2013-03-05 03:07:00,13.3,10.7,30.36,ESE,102,0.0,5.0,89,0.00,,,0.00,0,Wunderground v.1.15,2013-03-05 10:07:00,
2013-03-05 03:13:00,13.1,10.5,30.36,ESE,102,0.0,5.0,89,0.00,,,0.00,0,Wunderground v.1.15,2013-03-05 10:13:00,
2013-03-05 03:19:00,13.1,10.5,30.36,ESE,102,0.0,5.0,89,0.00,,,0.00,0,Wunderground v.1.15,2013-03-05 10:19:00,
2013-03-05 03:25:00,13.0,10.4,30.36,ESE,102,0.0,5.0,89,0.00,,,0.00,0,Wunderground v.1.15,2013-03-05 10:25:00,
2013-03-05 03:30:00,13.0,10.4,30.36,ESE,102,0.0,5.0,89,0.00,,,0.00,0,Wunderground v.1.15,2013-03-05 10:30:00,
2013-03-05 03:36:00,12.8,10.2,30.35,ESE,102,0.0,5.0,89,0.00,,,0.00,0,Wunderground v.1.15,2013-03-05 10:36:00,
2013-03-05 03:42:00,12.6,10.0,30.34,ESE,102,0.0,5.0,89,0.00,,,0.00,0,Wunderground v.1.15,2013-03-05 10:42:00,
2013-03-05 03:48:00,12.5,9.9,30.34,ESE,102,0.0,5.0,89,0.00,,,0.00,0,Wunderground v.1.15,2013-03-05 10:48:00,
2013-03-05 03:53:00,12.4,9.8,30.34,ESE,102,0.0,5.0,89,0.00,,,0.00,0,Wunderground v.1.15,2013-03-05 10:53:00,
2013-03-05 03:59:00,12.3,9.7,30.34,ESE,102,0.0,5.0,89,0.00,,,0.00,0,Wunderground v.1.15,2013-03-05 10:59:00,
2013-03-05 04:05:00,12.3,9.7,30.34,ESE,102,0.0,5.0,89,0.00,,,0.00,0,Wunderground v.1.15,2013-03-05 11:05:00,
2013-03-05 04:11:00,12.2,9.6,30.35,ESE,102,0.0,5.0,89,0.00,,,0.00,0,Wunderground v.1.15,2013-03-05 11:11:00,
2013-03-05 04:17:00,12.1,9.5,30.35,ESE,102,0.0,5.0,89,0.00,,,0.00,0,Wunderground v.1.15,2013-03-05 11:17:00,
2013-03-05 04:23:00,12.0,9.4,30.35,ESE,102,0.0,5.0,89,0.00,,,0.00,0,Wunderground v.1.15,2013-03-05 11:23:00,
2013-03-05 04:29:00,11.9,9.3,30.35,ESE,102,0.0,5.0,89,0.00,,,0.00,0,Wunderground v.1.15,2013-03-05 11:29:00,
2013-03-05 04:35:00,11.8,9.2,30.35,ESE,102,0.0,5.0,89,0.00,,,0.00,0,Wunderground v.1.15,2013-03-05 11:35:00,
2013-03-05 04:41:00,11.7,9.1,30.35,ESE,102,0.0,5.0,89,0.00,,,0.00,0,Wunderground v.1.15,2013-03-05 11:41:00,
2013-03-05 04:47:00,11.6,9.0,30.35,ESE,102,0.0,5.0,89,0.00,,,0.00,0,Wunderground v.1.15,2013-03-05 11:47:00,
2013-03-05 04:53:00,11.6,9.0,30.35,ESE,102,0.0,5.0,89,0.00,,,0.00,0,Wunderground v.1.15,2013-03-05 11:53:00,
2013-03-05 04:58:00,11.4,8.8,30.35,ESE,102,0.0,5.0,89,0.00,,,0.00,0,Wunderground v.1.15,2013-03-05 11:58:00,
2013-03-05 05:04:00,11.5,8.9,30.35,ESE,102,0.0,5.0,89,0.00,,,0.00,0,Wunderground v.1.15,2013-03-05 12:04:00,
2013-03-05 05:10:00,11.4,8.8,30.35,ESE,102,0.0,5.0,89,0.00,,,0.00,0,Wunderground v.1.15,2013-03-05 12:10:00,
2013-03-05 05:16:00,11.4,8.8,30.35,ESE,102,0.0,5.0,89,0.00,,,0.00,0,Wunderground v.1.15,2013-03-05 12:16:00,
2013-03-05 05:22:00,11.3,8.7,30.36,ESE,102,0.0,5.0,89,0.00,,,0.00,0,Wunderground v.1.15,2013-03-05 12:22:00,
2013-03-05 05:28:00,11.2,8.6,30.35,ESE,102,0.0,5.0,89,0.00,,,0.00,0,Wunderground v.1.15,2013-03-05 12:28:00,
2013-03-05 05:34:00,11.0,8.1,30.35,ESE,102,0.0,5.0,88,0.00,,,0.00,0,Wunderground v.1.15,2013-03-05 12:34:00,
2013-03-05 05:40:00,10.9,8.0,30.35,ESE,102,0.0,5.0,88,0.00,,,0.00,0,Wunderground v.1.15,2013-03-05 12:40:00,
2013-03-05 05:46:00,10.9,8.0,30.35,ESE,102,0.0,5.0,88,0.00,,,0.00,0,Wunderground v.1.15,2013-03-05 12:46:00,
2013-03-05 05:52:00,10.9,8.3,30.35,ESE,102,0.0,5.0,89,0.00,,,0.00,0,Wunderground v.1.15,2013-03-05 12:52:00,
2013-03-05 05:58:00,10.9,8.3,30.35,ESE,102,0.0,5.0,89,0.00,,,0.00,0,Wunderground v.1.15,2013-03-05 12:58:00,
2013-03-05 06:04:00,10.9,8.3,30.34,ESE,102,0.0,5.0,89,0.00,,,0.00,0,Wunderground v.1.15,2013-03-05 13:04:00,
2013-03-05 06:10:00,10.9,8.3,30.34,ESE,102,0.0,5.0,89,0.00,,,0.00,0,Wunderground v.1.15,2013-03-05 13:10:00,
2013-03-05 06:16:00,10.8,8.2,30.34,ESE,102,0.0,5.0,89,0.00,,,0.00,0,Wunderground v.1.15,2013-03-05 13:16:00,
2013-03-05 06:22:00,10.8,8.2,30.34,ESE,102,0.0,5.0,89,0.00,,,0.00,0,Wunderground v.1.15,2013-03-05 13:22:00,
2013-03-05 06:28:00,10.8,8.2,30.35,ESE,102,0.0,5.0,89,0.00,,,0.00,0,Wunderground v.1.15,2013-03-05 13:28:00,
2013-03-05 06:33:00,10.7,8.1,30.35,ESE,102,0.0,5.0,89,0.00,,,0.00,0,Wunderground v.1.15,2013-03-05 13:33:00,
2013-03-05 06:39:00,10.5,7.6,30.35,ESE,102,0.0,5.0,88,0.00,,,0.00,0,Wunderground v.1.15,2013-03-05 13:39:00,
2013-03-05 06:45:00,10.4,7.6,30.34,ESE,102,0.0,5.0,88,0.00,,,0.00,0,Wunderground v.1.15,2013-03-05 13:45:00,
2013-03-05 06:51:00,10.3,7.5,30.34,ESE,102,0.0,5.0,88,0.00,,,0.00,0,Wunderground v.1.15,2013-03-05 13:51:00,
2013-03-05 06:57:00,10.2,7.4,30.34,ESE,102,0.0,5.0,88,0.00,,,0.00,0,Wunderground v.1.15,2013-03-05 13:57:00,
2013-03-05 07:03:00,10.1,7.3,30.34,ESE,102,0.0,5.0,88,0.00,,,0.00,0,Wunderground v.1.15,2013-03-05 14:03:00,
2013-03-05 07:09:00,10.0,7.2,30.35,ESE,102,0.0,5.0,88,0.00,,,0.00,5,Wunderground v.1.15,2013-03-05 14:09:00,
2013-03-05 07:15:00,9.9,7.1,30.36,ESE,102,0.0,5.0,88,0.00,,,0.00,7,Wunderground v.1.15,2013-03-05 14:15:00,
2013-03-05 07:21:00,9.9,7.1,30.36,ESE,102,0.0,5.0,88,0.00,,,0.00,12,Wunderground v.1.15,2013-03-05 14:21:00,
2013-03-05 07:27:00,9.9,7.1,30.36,ESE,102,0.0,5.0,88,0.00,,,0.00,16,Wunderground v.1.15,2013-03-05 14:27:00,
2013-03-05 07:33:00,10.0,7.4,30.35,ESE,102,0.0,5.0,89,0.00,,,0.00,23,Wunderground v.1.15,2013-03-05 14:33:00,
2013-03-05 07:39:00,10.1,7.5,30.36,ESE,102,0.0,5.0,89,0.00,,,0.00,28,Wunderground v.1.15,2013-03-05 14:39:00,
2013-03-05 07:45:00,10.2,7.6,30.36,ESE,102,0.0,5.0,89,0.00,,,0.00,33,Wunderground v.1.15,2013-03-05 14:45:00,
2013-03-05 07:51:00,10.4,7.8,30.36,ESE,102,0.0,5.0,89,0.00,,,0.00,39,Wunderground v.1.15,2013-03-05 14:51:00,
2013-03-05 07:56:00,10.5,7.9,30.36,ESE,102,0.0,5.0,89,0.00,,,0.00,42,Wunderground v.1.15,2013-03-05 14:56:00,
2013-03-05 08:02:00,10.7,8.3,30.36,ESE,102,0.0,5.0,90,0.00,,,0.00,46,Wunderground v.1.15,2013-03-05 15:02:00,
2013-03-05 08:08:00,11.0,8.6,30.36,ESE,102,0.0,5.0,90,0.00,,,0.00,49,Wunderground v.1.15,2013-03-05 15:08:00,
2013-03-05 08:14:00,11.2,8.8,30.36,ESE,102,0.0,5.0,90,0.00,,,0.00,60,Wunderground v.1.15,2013-03-05 15:14:00,
2013-03-05 08:20:00,11.5,9.1,30.36,ESE,102,0.0,5.0,90,0.00,,,0.00,69,Wunderground v.1.15,2013-03-05 15:20:00,
2013-03-05 08:26:00,11.8,9.4,30.36,ESE,102,0.0,5.0,90,0.00,,,0.00,88,Wunderground v.1.15,2013-03-05 15:26:00,
2013-03-05 08:32:00,12.2,10.1,30.36,ESE,102,0.0,5.0,91,0.00,,,0.00,118,Wunderground v.1.15,2013-03-05 15:32:00,
2013-03-05 08:37:00,12.8,10.7,30.35,ESE,102,0.0,5.0,91,0.00,,,0.00,137,Wunderground v.1.15,2013-03-05 15:37:00,
2013-03-05 08:42:00,13.1,11.0,30.35,ESE,102,0.0,5.0,91,0.00,,,0.00,144,Wunderground v.1.15,2013-03-05 15:42:00,
2013-03-05 08:48:00,13.7,11.6,30.35,ESE,102,0.0,5.0,91,0.00,,,0.00,130,Wunderground v.1.15,2013-03-05 15:48:00,
2013-03-05 08:54:00,14.4,12.5,30.35,ESE,102,0.0,5.0,92,0.00,,,0.00,109,Wunderground v.1.15,2013-03-05 15:54:00,
2013-03-05 09:00:00,15.2,13.3,30.36,ESE,102,0.0,5.0,92,0.00,,,0.00,167,Wunderground v.1.15,2013-03-05 16:00:00,
2013-03-05 09:06:00,16.0,14.3,30.36,ESE,102,0.0,5.0,93,0.00,,,0.00,169,Wunderground v.1.15,2013-03-05 16:06:00,
2013-03-05 09:12:00,16.7,14.8,30.36,ESE,102,0.0,5.0,92,0.00,,,0.00,167,Wunderground v.1.15,2013-03-05 16:12:00,
2013-03-05 09:18:00,17.3,15.4,30.35,ESE,102,0.0,5.0,92,0.00,,,0.00,179,Wunderground v.1.15,2013-03-05 16:18:00,
2013-03-05 09:23:00,17.7,15.5,30.36,ESE,102,0.0,5.0,91,0.00,,,0.00,255,Wunderground v.1.15,2013-03-05 16:23:00,
2013-03-05 09:29:00,18.2,15.5,30.35,ESE,102,0.0,5.0,89,0.00,,,0.00,288,Wunderground v.1.15,2013-03-05 16:29:00,
2013-03-05 09:35:00,18.8,16.1,30.35,ESE,102,0.0,5.0,89,0.00,,,0.00,315,Wunderground v.1.15,2013-03-05 16:35:00,
2013-03-05 09:41:00,19.3,16.1,30.35,ESE,102,1.0,5.0,87,0.00,,,0.00,313,Wunderground v.1.15,2013-03-05 16:41:00,
2013-03-05 09:47:00,19.7,15.9,30.35,ESE,102,1.0,5.0,85,0.00,,,0.00,230,Wunderground v.1.15,2013-03-05 16:47:00,
2013-03-05 09:53:00,20.0,15.7,30.34,ESE,102,0.0,5.0,83,0.00,,,0.00,274,Wunderground v.1.15,2013-03-05 16:53:00,
2013-03-05 09:59:00,20.4,15.5,30.34,ESE,102,1.0,5.0,81,0.00,,,0.00,396,Wunderground v.1.15,2013-03-05 16:59:00,
2013-03-05 10:05:00,20.9,15.7,30.34,North,360,1.0,5.0,80,0.00,,,0.00,336,Wunderground v.1.15,2013-03-05 17:05:00,
2013-03-05 10:11:00,21.3,15.8,30.34,ENE,67,1.0,5.0,79,0.00,,,0.00,301,Wunderground v.1.15,2013-03-05 17:11:00,
2013-03-05 10:17:00,21.5,15.4,30.33,ENE,72,2.0,5.0,77,0.00,,,0.00,469,Wunderground v.1.15,2013-03-05 17:17:00,
2013-03-05 10:23:00,22.0,15.9,30.33,ESE,117,2.0,5.0,77,0.00,,,0.00,536,Wunderground v.1.15,2013-03-05 17:23:00,
2013-03-05 10:29:00,22.8,16.4,30.33,East,99,1.0,5.0,76,0.00,,,0.00,329,Wunderground v.1.15,2013-03-05 17:29:00,
2013-03-05 10:35:00,23.2,16.1,30.33,East,99,1.0,5.0,74,0.00,,,0.00,526,Wunderground v.1.15,2013-03-05 17:35:00,
2013-03-05 10:40:00,24.1,16.4,30.33,SE,126,1.0,5.0,72,0.00,,,0.00,497,Wunderground v.1.15,2013-03-05 17:40:00,
2013-03-05 10:46:00,24.6,16.2,30.33,East,101,1.0,5.0,70,0.00,,,0.00,459,Wunderground v.1.15,2013-03-05 17:46:00,
2013-03-05 10:52:00,25.5,17.1,30.32,South,190,1.0,5.0,70,0.00,,,0.00,508,Wunderground v.1.15,2013-03-05 17:52:00,
2013-03-05 10:58:00,26.1,17.0,30.32,ENE,71,1.0,5.0,68,0.00,,,0.00,508,Wunderground v.1.15,2013-03-05 17:58:00,
2013-03-05 11:04:00,26.2,16.7,30.31,SSE,164,1.0,5.0,67,0.00,,,0.00,499,Wunderground v.1.15,2013-03-05 18:04:00,
2013-03-05 11:10:00,26.8,17.3,30.31,NW,325,1.0,5.0,67,0.00,,,0.00,501,Wunderground v.1.15,2013-03-05 18:10:00,
2013-03-05 11:16:00,27.3,17.4,30.31,ENE,60,0.0,5.0,66,0.00,,,0.00,503,Wunderground v.1.15,2013-03-05 18:16:00,
2013-03-05 11:22:00,27.0,16.8,30.31,East,89,1.0,5.0,65,0.00,,,0.00,543,Wunderground v.1.15,2013-03-05 18:22:00,
2013-03-05 11:28:00,27.0,17.1,30.30,East,88,1.0,5.0,66,0.00,,,0.00,550,Wunderground v.1.15,2013-03-05 18:28:00,
2013-03-05 11:34:00,27.5,16.9,30.30,NE,53,1.0,5.0,64,0.00,,,0.00,533,Wunderground v.1.15,2013-03-05 18:34:00,
2013-03-05 11:40:00,27.7,17.1,30.30,ENE,74,1.0,5.0,64,0.00,,,0.00,550,Wunderground v.1.15,2013-03-05 18:40:00,
2013-03-05 11:46:00,27.8,16.8,30.29,ENE,76,1.0,5.0,63,0.00,,,0.00,550,Wunderground v.1.15,2013-03-05 18:46:00,
2013-03-05 11:52:00,28.5,17.5,30.29,ENE,67,1.0,5.0,63,0.00,,,0.00,533,Wunderground v.1.15,2013-03-05 18:52:00,
2013-03-05 11:58:00,29.3,17.9,30.29,ENE,67,0.0,5.0,62,0.00,,,0.00,499,Wunderground v.1.15,2013-03-05 18:58:00,
2013-03-05 12:03:00,29.6,17.4,30.28,NE,51,1.0,5.0,60,0.00,,,0.00,506,Wunderground v.1.15,2013-03-05 19:03:00,
2013-03-05 12:09:00,29.7,17.5,30.28,NE,51,1.0,5.0,60,0.00,,,0.00,513,Wunderground v.1.15,2013-03-05 19:09:00,
2013-03-05 12:15:00,29.9,17.7,30.28,NE,52,1.0,5.0,60,0.00,,,0.00,540,Wunderground v.1.15,2013-03-05 19:15:00,
2013-03-05 12:21:00,29.7,17.5,30.27,NE,56,1.0,5.0,60,0.00,,,0.00,561,Wunderground v.1.15,2013-03-05 19:21:00,
2013-03-05 12:26:00,29.8,17.6,30.27,NE,56,1.0,5.0,60,0.00,,,0.00,545,Wunderground v.1.15,2013-03-05 19:26:00,
2013-03-05 12:32:00,30.0,17.8,30.27,East,86,1.0,5.0,60,0.00,,,0.00,548,Wunderground v.1.15,2013-03-05 19:32:00,
2013-03-05 12:38:00,30.5,17.9,30.27,ESE,122,1.0,5.0,59,0.00,,,0.00,568,Wunderground v.1.15,2013-03-05 19:38:00,
2013-03-05 12:44:00,30.6,18.0,30.26,ENE,69,1.0,5.0,59,0.00,,,0.00,545,Wunderground v.1.15,2013-03-05 19:44:00,
2013-03-05 12:49:00,30.7,18.1,30.26,SE,126,1.0,5.0,59,0.00,,,0.00,490,Wunderground v.1.15,2013-03-05 19:49:00,
2013-03-05 12:54:00,31.4,18.7,30.26,SE,126,1.0,5.0,59,0.00,,,0.00,497,Wunderground v.1.15,2013-03-05 19:54:00,
2013-03-05 13:00:00,31.9,18.4,30.25,ENE,63,1.0,1.0,57,0.00,,,0.00,464,Wunderground v.1.15,2013-03-05 20:00:00,
2013-03-05 13:06:00,32.2,18.7,30.25,ENE,57,1.0,5.0,57,0.00,,,0.00,482,Wunderground v.1.15,2013-03-05 20:06:00,
2013-03-05 13:12:00,33.0,19.4,30.25,ENE,57,0.0,5.0,57,0.00,,,0.00,480,Wunderground v.1.15,2013-03-05 20:12:00,
2013-03-05 13:18:00,33.5,18.6,30.24,ENE,74,0.0,5.0,54,0.00,,,0.00,508,Wunderground v.1.15,2013-03-05 20:18:00,
2013-03-05 13:24:00,33.5,19.0,30.24,ENE,78,1.0,5.0,55,0.00,,,0.00,548,Wunderground v.1.15,2013-03-05 20:24:00,
2013-03-05 13:30:00,33.4,18.5,30.24,ENE,76,2.0,5.0,54,0.00,,,0.00,350,Wunderground v.1.15,2013-03-05 20:30:00,
2013-03-05 13:36:00,33.0,19.4,30.23,ENE,76,1.0,5.0,57,0.00,,,0.00,302,Wunderground v.1.15,2013-03-05 20:36:00,
2013-03-05 13:42:00,32.8,18.8,30.24,ENE,76,1.0,5.0,56,0.00,,,0.00,304,Wunderground v.1.15,2013-03-05 20:42:00,
2013-03-05 13:48:00,32.6,18.6,30.23,ENE,76,0.0,5.0,56,0.00,,,0.00,290,Wunderground v.1.15,2013-03-05 20:48:00,
2013-03-05 13:54:00,32.5,19.7,30.23,ENE,76,1.0,5.0,59,0.00,,,0.00,281,Wunderground v.1.15,2013-03-05 20:54:00,
2013-03-05 14:00:00,32.7,18.7,30.23,NE,39,1.0,5.0,56,0.00,,,0.00,267,Wunderground v.1.15,2013-03-05 21:00:00,
2013-03-05 14:06:00,32.7,19.1,30.23,NNE,13,1.0,5.0,57,0.00,,,0.00,251,Wunderground v.1.15,2013-03-05 21:06:00,
2013-03-05 14:12:00,32.8,19.2,30.22,North,360,0.0,5.0,57,0.00,,,0.00,271,Wunderground v.1.15,2013-03-05 21:12:00,
2013-03-05 14:17:00,33.1,19.9,30.22,North,349,0.0,5.0,58,0.00,,,0.00,281,Wunderground v.1.15,2013-03-05 21:17:00,
2013-03-05 14:23:00,33.3,19.7,30.22,North,349,0.0,5.0,57,0.00,,,0.00,281,Wunderground v.1.15,2013-03-05 21:23:00,
2013-03-05 14:29:00,33.7,20.1,30.22,NE,36,0.0,5.0,57,0.00,,,0.00,253,Wunderground v.1.15,2013-03-05 21:29:00,
2013-03-05 14:34:00,33.6,20.4,30.22,NE,36,0.0,5.0,58,0.00,,,0.00,239,Wunderground v.1.15,2013-03-05 21:34:00,
2013-03-05 14:40:00,33.6,19.1,30.22,ENE,65,0.0,5.0,55,0.00,,,0.00,223,Wunderground v.1.15,2013-03-05 21:40:00,
2013-03-05 14:46:00,33.8,18.9,30.21,ENE,65,0.0,5.0,54,0.00,,,0.00,218,Wunderground v.1.15,2013-03-05 21:46:00,
2013-03-05 14:52:00,34.0,19.5,30.21,ENE,65,0.0,5.0,55,0.00,,,0.00,211,Wunderground v.1.15,2013-03-05 21:52:00,
2013-03-05 14:58:00,34.1,20.0,30.21,ENE,65,0.0,5.0,56,0.00,,,0.00,174,Wunderground v.1.15,2013-03-05 21:58:00,
2013-03-05 15:04:00,34.1,19.6,30.20,ENE,65,0.0,5.0,55,0.00,,,0.00,156,Wunderground v.1.15,2013-03-05 22:04:00,
2013-03-05 15:10:00,33.7,19.7,30.20,ENE,65,0.0,5.0,56,0.00,,,0.00,144,Wunderground v.1.15,2013-03-05 22:10:00,
2013-03-05 15:16:00,33.7,19.7,30.19,ENE,65,0.0,5.0,56,0.00,,,0.00,146,Wunderground v.1.15,2013-03-05 22:16:00,
2013-03-05 15:22:00,33.5,19.5,30.19,ENE,65,0.0,5.0,56,0.00,,,0.00,148,Wunderground v.1.15,2013-03-05 22:22:00,
2013-03-05 15:28:00,33.4,19.4,30.19,ENE,65,0.0,5.0,56,0.00,,,0.00,156,Wunderground v.1.15,2013-03-05 22:28:00,
2013-03-05 15:34:00,33.6,21.2,30.19,ENE,65,0.0,5.0,60,0.00,,,0.00,162,Wunderground v.1.15,2013-03-05 22:34:00,
2013-03-05 15:40:00,33.7,20.5,30.19,ENE,65,0.0,5.0,58,0.00,,,0.00,151,Wunderground v.1.15,2013-03-05 22:40:00,
2013-03-05 15:46:00,33.9,20.3,30.18,ENE,65,0.0,5.0,57,0.00,,,0.00,148,Wunderground v.1.15,2013-03-05 22:46:00,
2013-03-05 15:52:00,34.1,20.4,30.18,ENE,65,0.0,5.0,57,0.00,,,0.00,148,Wunderground v.1.15,2013-03-05 22:52:00,
2013-03-05 15:57:00,34.3,20.2,30.18,ENE,65,0.0,5.0,56,0.00,,,0.00,144,Wunderground v.1.15,2013-03-05 22:57:00,
2013-03-05 16:03:00,34.4,19.9,30.18,ENE,65,0.0,5.0,55,0.00,,,0.00,137,Wunderground v.1.15,2013-03-05 23:03:00,
2013-03-05 16:09:00,34.4,19.9,30.17,ENE,65,0.0,5.0,55,0.00,,,0.00,137,Wunderground v.1.15,2013-03-05 23:09:00,
2013-03-05 16:15:00,34.4,19.9,30.17,ENE,65,0.0,5.0,55,0.00,,,0.00,139,Wunderground v.1.15,2013-03-05 23:15:00,
2013-03-05 16:21:00,34.2,20.1,30.17,ENE,65,0.0,5.0,56,0.00,,,0.00,139,Wunderground v.1.15,2013-03-05 23:21:00,
2013-03-05 16:27:00,34.2,20.9,30.17,ENE,65,0.0,5.0,58,0.00,,,0.00,130,Wunderground v.1.15,2013-03-05 23:27:00,
2013-03-05 16:33:00,34.2,20.9,30.16,ENE,65,0.0,5.0,58,0.00,,,0.00,127,Wunderground v.1.15,2013-03-05 23:33:00,
2013-03-05 16:39:00,33.9,20.7,30.16,ENE,65,0.0,5.0,58,0.00,,,0.00,113,Wunderground v.1.15,2013-03-05 23:39:00,
2013-03-05 16:45:00,33.8,21.4,30.16,ENE,65,0.0,5.0,60,0.00,,,0.00,97,Wunderground v.1.15,2013-03-05 23:45:00,
2013-03-05 16:51:00,33.6,21.2,30.16,ENE,65,0.0,5.0,60,0.00,,,0.00,93,Wunderground v.1.15,2013-03-05 23:51:00,
2013-03-05 16:57:00,33.7,20.9,30.16,ENE,65,0.0,5.0,59,0.00,,,0.00,93,Wunderground v.1.15,2013-03-05 23:57:00,
2013-03-05 17:03:00,33.7,20.5,30.16,ENE,65,0.0,5.0,58,0.00,,,0.00,93,Wunderground v.1.15,2013-03-06 00:03:00,
2013-03-05 17:09:00,33.8,19.7,30.16,ENE,65,0.0,5.0,56,0.00,,,0.00,77,Wunderground v.1.15,2013-03-06 00:09:00,
2013-03-05 17:15:00,33.9,20.7,30.16,ENE,65,0.0,5.0,58,0.00,,,0.00,56,Wunderground v.1.15,2013-03-06 00:15:00,
2013-03-05 17:21:00,33.9,19.8,30.15,ENE,65,0.0,5.0,56,0.00,,,0.00,40,Wunderground v.1.15,2013-03-06 00:21:00,
2013-03-05 17:27:00,33.9,20.7,30.15,ENE,65,0.0,5.0,58,0.00,,,0.00,32,Wunderground v.1.15,2013-03-06 00:27:00,
2013-03-05 17:32:00,33.8,20.6,30.15,ENE,65,0.0,5.0,58,0.00,,,0.00,30,Wunderground v.1.15,2013-03-06 00:32:00,
2013-03-05 17:38:00,33.8,21.0,30.15,ENE,65,0.0,5.0,59,0.00,,,0.00,28,Wunderground v.1.15,2013-03-06 00:38:00,
2013-03-05 17:44:00,33.7,20.1,30.15,ENE,65,0.0,5.0,57,0.00,,,0.00,25,Wunderground v.1.15,2013-03-06 00:44:00,
2013-03-05 17:50:00,33.7,20.1,30.15,ENE,65,0.0,5.0,57,0.00,,,0.00,16,Wunderground v.1.15,2013-03-06 00:50:00,
2013-03-05 17:56:00,33.6,20.4,30.15,ENE,65,0.0,5.0,58,0.00,,,0.00,16,Wunderground v.1.15,2013-03-06 00:56:00,
2013-03-05 18:02:00,33.6,22.7,30.15,ENE,65,0.0,5.0,64,0.00,,,0.00,19,Wunderground v.1.15,2013-03-06 01:02:00,
2013-03-05 18:08:00,33.5,22.2,30.15,ENE,65,0.0,5.0,63,0.00,,,0.00,14,Wunderground v.1.15,2013-03-06 01:08:00,
2013-03-05 18:14:00,33.4,23.3,30.15,ENE,65,0.0,5.0,66,0.00,,,0.00,9,Wunderground v.1.15,2013-03-06 01:14:00,
2013-03-05 18:20:00,33.1,24.7,30.14,ENE,65,0.0,5.0,71,0.00,,,0.00,5,Wunderground v.1.15,2013-03-06 01:20:00,
2013-03-05 18:26:00,32.9,24.9,30.14,ENE,65,0.0,5.0,72,0.00,,,0.00,0,Wunderground v.1.15,2013-03-06 01:26:00,
2013-03-05 18:32:00,32.5,24.5,30.14,ENE,65,0.0,5.0,72,0.00,,,0.00,0,Wunderground v.1.15,2013-03-06 01:32:00,
2013-03-05 18:38:00,32.2,24.8,30.15,ENE,65,0.0,5.0,74,0.00,,,0.00,0,Wunderground v.1.15,2013-03-06 01:38:00,
2013-03-05 18:44:00,31.8,25.1,30.14,ENE,65,0.0,5.0,76,0.00,,,0.00,0,Wunderground v.1.15,2013-03-06 01:44:00,
2013-03-05 18:50:00,31.3,24.0,30.14,ENE,65,0.0,5.0,74,0.00,,,0.00,0,Wunderground v.1.15,2013-03-06 01:50:00,
2013-03-05 18:55:00,31.1,23.8,30.15,ENE,65,0.0,5.0,74,0.00,,,0.00,0,Wunderground v.1.15,2013-03-06 01:55:00,
2013-03-05 19:01:00,30.8,23.8,30.14,ENE,65,0.0,5.0,75,0.00,,,0.00,0,Wunderground v.1.15,2013-03-06 02:01:00,
2013-03-05 19:06:00,30.5,23.5,30.14,ENE,65,0.0,5.0,75,0.00,,,0.00,0,Wunderground v.1.15,2013-03-06 02:06:00,
2013-03-05 19:12:00,30.2,22.9,30.14,ENE,65,0.0,5.0,74,0.00,,,0.00,0,Wunderground v.1.15,2013-03-06 02:12:00,
2013-03-05 19:18:00,30.1,23.8,30.15,ENE,65,0.0,5.0,77,0.00,,,0.00,0,Wunderground v.1.15,2013-03-06 02:18:00,
2013-03-05 19:24:00,29.9,23.3,30.14,ENE,65,0.0,5.0,76,0.00,,,0.00,0,Wunderground v.1.15,2013-03-06 02:24:00,
2013-03-05 19:30:00,29.8,23.2,30.15,ENE,65,0.0,5.0,76,0.00,,,0.00,0,Wunderground v.1.15,2013-03-06 02:30:00,
2013-03-05 19:36:00,29.8,23.5,30.15,ENE,65,0.0,5.0,77,0.00,,,0.00,0,Wunderground v.1.15,2013-03-06 02:36:00,
2013-03-05 19:42:00,29.7,23.7,30.15,ENE,65,0.0,5.0,78,0.00,,,0.00,0,Wunderground v.1.15,2013-03-06 02:42:00,
2013-03-05 19:48:00,29.6,24.2,30.15,ENE,65,0.0,5.0,80,0.00,,,0.00,0,Wunderground v.1.15,2013-03-06 02:48:00,
2013-03-05 19:54:00,29.6,23.9,30.15,ENE,65,0.0,5.0,79,0.00,,,0.00,0,Wunderground v.1.15,2013-03-06 02:54:00,
2013-03-05 20:00:00,29.5,23.5,30.15,ENE,65,0.0,5.0,78,0.00,,,0.00,0,Wunderground v.1.15,2013-03-06 03:00:00,
2013-03-05 20:06:00,29.5,23.8,30.15,ENE,65,0.0,5.0,79,0.00,,,0.00,0,Wunderground v.1.15,2013-03-06 03:06:00,
2013-03-05 20:12:00,29.5,24.4,30.15,ENE,65,0.0,5.0,81,0.00,,,0.00,0,Wunderground v.1.15,2013-03-06 03:12:00,
2013-03-05 20:17:00,29.5,24.4,30.15,ENE,65,0.0,5.0,81,0.00,,,0.00,0,Wunderground v.1.15,2013-03-06 03:17:00,
2013-03-05 20:22:00,29.4,24.6,30.15,ENE,65,0.0,5.0,82,0.00,,,0.00,0,Wunderground v.1.15,2013-03-06 03:22:00,
2013-03-05 20:27:00,29.4,24.3,30.15,ENE,65,0.0,5.0,81,0.00,,,0.00,0,Wunderground v.1.15,2013-03-06 03:27:00,
2013-03-05 20:33:00,29.4,24.6,30.15,ENE,65,0.0,5.0,82,0.00,,,0.00,0,Wunderground v.1.15,2013-03-06 03:33:00,
2013-03-05 20:38:00,29.3,24.5,30.15,ENE,65,0.0,5.0,82,0.00,,,0.00,0,Wunderground v.1.15,2013-03-06 03:38:00,
2013-03-05 20:43:00,29.2,24.4,30.14,ENE,65,0.0,5.0,82,0.00,,,0.00,0,Wunderground v.1.15,2013-03-06 03:43:00,
2013-03-05 20:49:00,29.2,24.4,30.14,ENE,65,0.0,5.0,82,0.00,,,0.00,0,Wunderground v.1.15,2013-03-06 03:49:00,
2013-03-05 20:54:00,29.1,24.6,30.14,ENE,65,0.0,5.0,83,0.00,,,0.00,0,Wunderground v.1.15,2013-03-06 03:54:00,
2013-03-05 20:59:00,29.1,24.6,30.14,ENE,65,0.0,5.0,83,0.00,,,0.00,0,Wunderground v.1.15,2013-03-06 03:59:00,
2013-03-05 21:04:00,29.1,24.3,30.14,ENE,65,0.0,5.0,82,0.00,,,0.00,0,Wunderground v.1.15,2013-03-06 04:04:00,
2013-03-05 21:10:00,29.1,24.0,30.14,ENE,65,0.0,5.0,81,0.00,,,0.00,0,Wunderground v.1.15,2013-03-06 04:10:00,
2013-03-05 21:16:00,29.1,24.3,30.14,ENE,65,0.0,5.0,82,0.00,,,0.00,0,Wunderground v.1.15,2013-03-06 04:16:00,
2013-03-05 21:21:00,29.1,24.6,30.14,ENE,65,0.0,5.0,83,0.00,,,0.00,0,Wunderground v.1.15,2013-03-06 04:21:00,
2013-03-05 21:27:00,29.2,24.7,30.14,ENE,65,0.0,5.0,83,0.00,,,0.00,0,Wunderground v.1.15,2013-03-06 04:27:00,
2013-03-05 21:33:00,29.2,24.1,30.14,ENE,65,0.0,5.0,81,0.00,,,0.00,0,Wunderground v.1.15,2013-03-06 04:33:00,
2013-03-05 21:38:00,29.2,24.4,30.14,ENE,65,0.0,5.0,82,0.00,,,0.00,0,Wunderground v.1.15,2013-03-06 04:38:00,
2013-03-05 21:44:00,29.3,24.8,30.14,ENE,65,0.0,5.0,83,0.00,,,0.00,0,Wunderground v.1.15,2013-03-06 04:44:00,
2013-03-05 21:50:00,29.2,25.0,30.14,ENE,65,0.0,5.0,84,0.00,,,0.00,0,Wunderground v.1.15,2013-03-06 04:50:00,
2013-03-05 21:56:00,29.2,25.3,30.13,ENE,65,0.0,5.0,85,0.00,,,0.00,0,Wunderground v.1.15,2013-03-06 04:56:00,
2013-03-05 22:00:00,29.2,25.3,30.13,ENE,65,0.0,5.0,85,0.00,,,0.00,0,Wunderground v.1.15,2013-03-06 05:00:00,
2013-03-05 22:01:00,29.2,25.3,30.13,ENE,65,0.0,5.0,85,0.00,,,0.00,0,Wunderground v.1.15,2013-03-06 05:01:00,
2013-03-05 22:04:00,29.2,25.3,30.13,ENE,65,0.0,5.0,85,0.00,,,0.00,0,Wunderground v.1.15,2013-03-06 05:04:00,
2013-03-05 22:05:00,29.2,25.3,30.13,ENE,65,0.0,5.0,85,0.00,,,0.00,0,Wunderground v.1.15,2013-03-06 05:05:00,
2013-03-05 22:10:00,29.1,25.2,30.13,ENE,65,0.0,5.0,85,0.00,,,0.00,0,Wunderground v.1.15,2013-03-06 05:10:00,
2013-03-05 22:15:00,29.1,25.4,30.13,ENE,65,0.0,5.0,86,0.00,,,0.00,0,Wunderground v.1.15,2013-03-06 05:15:00,
2013-03-05 22:20:00,29.0,25.3,30.13,ENE,65,0.0,5.0,86,0.00,,,0.00,0,Wunderground v.1.15,2013-03-06 05:20:00,
2013-03-05 22:26:00,28.9,25.2,30.13,ENE,65,0.0,5.0,86,0.00,,,0.00,0,Wunderground v.1.15,2013-03-06 05:26:00,
2013-03-05 22:32:00,28.9,25.2,30.12,ENE,65,0.0,5.0,86,0.00,,,0.00,0,Wunderground v.1.15,2013-03-06 05:32:00,
2013-03-05 22:37:00,28.8,25.1,30.12,ENE,65,0.0,5.0,86,0.00,,,0.00,0,Wunderground v.1.15,2013-03-06 05:37:00,
2013-03-05 22:43:00,28.8,25.4,30.12,ENE,65,0.0,5.0,87,0.00,,,0.00,0,Wunderground v.1.15,2013-03-06 05:43:00,
2013-03-05 22:49:00,28.7,25.3,30.12,ENE,65,0.0,5.0,87,0.00,,,0.00,0,Wunderground v.1.15,2013-03-06 05:49:00,
2013-03-05 22:54:00,28.6,25.2,30.12,ENE,65,0.0,5.0,87,0.00,,,0.00,0,Wunderground v.1.15,2013-03-06 05:54:00,
2013-03-05 23:00:00,28.6,25.2,30.12,ENE,65,0.0,5.0,87,0.00,,,0.00,0,Wunderground v.1.15,2013-03-06 06:00:00,
2013-03-05 23:06:00,28.5,25.1,30.12,ENE,65,0.0,5.0,87,0.00,,,0.00,0,Wunderground v.1.15,2013-03-06 06:06:00,
2013-03-05 23:12:00,28.5,25.1,30.11,ENE,65,0.0,5.0,87,0.00,,,0.00,0,Wunderground v.1.15,2013-03-06 06:12:00,
2013-03-05 23:17:00,28.5,25.4,30.11,ENE,65,0.0,5.0,88,0.00,,,0.00,0,Wunderground v.1.15,2013-03-06 06:17:00,
2013-03-05 23:23:00,28.5,25.4,30.11,ENE,65,0.0,5.0,88,0.00,,,0.00,0,Wunderground v.1.15,2013-03-06 06:23:00,
2013-03-05 23:29:00,28.5,25.4,30.11,ENE,65,0.0,5.0,88,0.00,,,0.00,0,Wunderground v.1.15,2013-03-06 06:29:00,
2013-03-05 23:35:00,28.5,25.4,30.11,ENE,65,0.0,5.0,88,0.00,,,0.00,0,Wunderground v.1.15,2013-03-06 06:35:00,
2013-03-05 23:41:00,28.5,25.4,30.10,ENE,65,0.0,5.0,88,0.00,,,0.00,0,Wunderground v.1.15,2013-03-06 06:41:00,
2013-03-05 23:47:00,28.5,25.4,30.10,ENE,65,0.0,5.0,88,0.00,,,0.00,0,Wunderground v.1.15,2013-03-06 06:47:00,
2013-03-05 23:53:00,28.5,25.4,30.10,ENE,65,0.0,5.0,88,0.00,,,0.00,0,Wunderground v.1.15,2013-03-06 06:53:00,
2013-03-05 23:59:00,28.5,25.7,30.10,ENE,65,0.0,5.0,89,0.00,,,0.00,0,Wunderground v.1.15,2013-03-06 06:59:00,